Showing default

KINEIS-2A, 62932

Orbit data source: Space-Track

KINEIS-2A, 62932 is a French payload satellite in SSO that was launched on Sat, 08 Feb 2025 UTC via an ELECTRON launch vehicle from the Rocket Lab Launch Complex (RLLC). Payload-class satellites include a variety of spacecraft equipped with specific instruments for various scientific and technological missions. These include communications satellites like Starlink; space stations such as the ISS; scientific satellites like the Hubble; Earth observation satellites from companies like Planet Labs, Umbra, and HawkEye 360; GPS; miniature CubeSats for education and research; and military/defense satellites.

Loading next visibility...
Identifier
62932, 2025-028E
Orbit
SSO
Last TLE update
13 hours ago
Origin
Manufacturer
KINEIS
Mission
Operational Commercial Communications
Bus & Motor
CUBESAT 16U, Unknown motor
Mass
28 kg wet, 28 kg dry
Launch date (UTC)
2025-02-08 (3 months ago)
Launch vehicle
ELECTRON
Launch site
Rocket Lab Launch Complex (RLLC)
Object type
Payload
Rocket body
Debris
Shape & HBR
Box + 2 Pan + 1 Ant, 1.6 m
Radar Cross Section
0.229 m², Medium (>0.1 m² and < 1m²)

Expand to show TLE details & history

TLE from 13 hours ago
0 KINEIS-2A
1 62932U 25028E   25128.73418652  .00001881  00000-0  30367-3 0  9993
2 62932  98.0056 183.2284 0003226  45.2267 314.9203 14.72544838 13090
Epoch: 2025-05-08T17:37Z
Definitive object data (Epoch: 2025-05-08T17:37:13.715Z)
Latitude
0.00003°
Longitude
52.12082°
Altitude
654.362 km
Speed
7.531 km/s
True Right ascension
12h 12m 54s
True Declination
0° 00' 00"
Sunlit
Object was in full shadow at TLE epoch
Visualization TLE readout
Latitude
37.1121°
Longitude
46.58783°
Altitude
655.822 km
Speed
7.534 km/s
Apparent Right ascension
08h 00m 30s
Apparent Declination
2° 03' 04"
Sunlit
Object is in daylight
Visualization observer readout
Local Sidereal Time
14:59:03
Azimuth
281.089° WNW
Elevation
-9.831°
Doppler factor
1
Orbital elements
Apogee altitude
652.279 km
Perigee altitude
647.744 km
Semi-major axis
7,028.148 km
Eccentricity
0.0003226
Inclination
98.0056°
RAAN
183.2284°
Arg. of periapsis
45.2267°
True anomaly
314.89412°
Mean anomaly
314.9203°
Eccentric anomaly
314.90721°
Mean motion
3.68368 °/min
BSTAR
0.00030367
Orbital period
97.73 mins
Loading maneuver chart data...
Loading SW <> Apogee altitude chart data...
Loading historical data...
Loading historical data...
Loading historical data...
Loading historical data...
Loading historical data...
Loading historical data...
Loading historical data...

KINEIS-2A Visibility forecast

Observer location: undefined°, undefined°

Span
Click to sort rows by Start time (UTC) header in descending order
Start Az.
Max El. time (UTC)
Max El. Az.
Max El.
End time (UTC)
End Az.
5 mins2025-05-09 15:25:09.730Z55.968° ENE2025-05-09 15:27:09.730Z84.727° E16.704°2025-05-09 15:30:09.730Z130.425° SE
6 mins2025-05-09 17:02:09.730Z345.008° N2025-05-09 17:04:09.730Z302.588° NW32.532°2025-05-09 17:08:09.730Z222.129° SW
6 mins2025-05-10 04:00:09.730Z194.722° SSW2025-05-10 04:03:09.730Z279.564° WNW36.311°2025-05-10 04:06:09.730Z331.826° NNW
|